Dewpoint
60 60 58 59 60 59 57 55 52 50 49 51 51 52 52 52 47 45 46 44 44 43 42 43 44 44 44 44 43 43 43 43 43 43 43 44 45 45
58 59 59 59 59 59 57 57 56 53 50 53 52 50 49 44 45 46 45 45 43 42 41 42 42 43 42 41 41 40 40 40 40 41 41 41 41 42
57 58 58 59 59 59 59 57 55 54 52 53 49 52 48 47 42 44 44 44 43 42 41 41 40 39 39 39 39 38 37 37 36 36 35 36 36 37
56 57 57 57 58 58 55 54 54 53 52 50 50 48 47 45 42 43 41 40 42 42 42 41 38 37 36 36 37 38 38 35 35 35 35 35 35 36
55 56 57 57 55 55 55 54 53 52 53 51 48 44 45 43 43 44 42 43 38 42 38 36 35 34 34 35 37 36 36 36 36 36 35 35 34 34
55 57 56 56 54 54 53 52 52 50 49 46 44 43 41 40 40 38 37 38 36 30 29 26 31 34 36 35 35 35 35 35 35 36 35 34 34 35
56 56 55 54 50 52 53 52 50 47 45 43 40 37 38 37 36 36 34 34 34 28 26 28 29 29 31 34 34 36 36 36 36 35 34 34 35 35
55 55 54 50 49 45 45 45 46 45 44 42 40 39 35 36 35 34 29 28 26 29 28 27 28 28 27 28 32 32 31 33 33 34 34 35 35 35
54 56 54 52 47 49 40 38 35 37 37 40 37 35 35 36 33 30 29 28 27 27 26 26 26 25 27 22 33 34 33 33 34 34 35 34 35 35
55 55 52 45 44 41 37 31 30 31 30 30 32 31 32 32 30 28 28 27 27 25 25 23 26 28 27 27 31 33 34 34 34 34 34 34 34 34
41 41 40 38 37 36 32 31 31 30 32 32 32 31 31 29 27 27 27 22 26 21 25 25 25 25 29 28 26 27 31 32 33 34 34 34 34 34
34 35 35 35 34 35 34 31 28 27 27 26 25 22 21 24 22 21 20 23 23 22 23 23 21 22 20 25 27 26 26 30 33 33 34 34 34 32
32 31 32 33 34 33 32 31 28 29 28 25 22 22 23 22 20 20 18 19 21 20 21 22 20 20 22 20 20 24 26 26 28 30 34 34 34 33
29 30 31 31 30 30 29 29 28 28 28 27 24 18 16 16 17 18 17 17 17 18 19 23 22 21 21 21 20 20 23 26 27 28 32 33 34 34
29 29 29 28 28 27 27 28 28 28 26 24 21 20 21 18 16 19 22 21 19 20 16 19 21 19 20 20 19 20 21 22 27 28 33 34 35 33
28 28 28 27 26 25 26 27 26 25 26 26 23 20 19 21 21 20 19 19 18 17 16 17 19 21 20 19 19 20 22 21 24 26 30 34 35 36
28 28 27 27 26 26 26 25 23 20 20 21 21 21 20 19 19 19 18 17 16 16 16 14 15 17 18 17 18 18 19 21 24 26 27 33 35 35
30 28 28 29 27 25 24 21 21 19 19 18 19 18 17 17 16 16 15 15 15 13 12 12 14 14 14 16 19 18 20 25 27 26 28 32 30 34
28 27 27 27 25 24 23 21 20 19 16 18 17 16 16 15 15 14 14 14 13 12 10 11 12 14 13 14 14 21 20 19 21 23 25 32 30 31
24 23 23 22 19 18 18 18 18 17 18 15 14 15 15 14 13 12 12 12 11 9 7 5 7 10 13 15 15 17 15 18 21 24 25 29 31 29
21 19 19 19 17 17 17 17 16 16 14 15 14 14 15 12 10 10 10 10 10 7 7 6 6 13 12 14 15 16 19 21 23 23 26 26 29 27
19 15 15 15 16 15 15 15 14 13 12 11 11 11 11 11 10 9 10 9 7 8 7 6 6 7 9 11 11 14 16 20 21 23 25 26 28 25
15 14 14 13 13 12 9 11 9 9 9 8 8 8 10 8 7 8 9 9 8 7 5 7 8 9 7 8 12 13 15 18 18 23 26 30 28 28
Lifted_Index
-1 -1 -1 -1 -2 -1 0 1 2 2 2 2 2 2 3 4 5 5 6 6 6 6 7 7 8 9 10 11 11 12 12 13 13 12 12 11 10 10
-1 -1 -1 -1 -1 -1 0 1 1 1 1 2 2 2 3 4 5 5 6 6 6 7 7 8 9 10 11 12 12 13 14 14 14 13 13 13 12 12
-0 -0 -1 -1 -0 -0 0 1 1 1 2 2 2 2 3 4 5 5 6 7 8 8 8 9 10 12 13 14 15 15 16 16 15 15 15 15 14 14
-0 -0 -0 0 1 1 1 1 2 2 2 3 3 3 3 4 4 5 6 7 9 10 10 11 12 14 15 16 16 17 16 16 16 16 16 16 16 16
0 0 1 1 2 2 2 2 2 2 2 3 3 3 3 3 4 5 6 7 9 11 12 13 15 16 17 17 17 17 16 16 16 17 17 17 17 16
0 1 1 2 3 3 3 2 2 2 2 2 3 3 3 3 4 4 6 7 10 12 14 15 16 16 17 17 17 16 16 16 16 17 17 17 17 16
1 1 2 3 3 3 2 1 1 1 1 2 2 2 2 3 3 4 6 7 10 13 14 15 16 16 16 16 16 16 16 16 16 17 17 17 16 16
1 2 2 2 2 2 1 1 1 1 1 1 1 2 2 4 5 6 6 7 9 13 15 16 16 16 16 16 16 16 16 16 17 17 17 16 15 15
1 2 2 1 1 0 0 1 1 2 3 3 3 4 5 7 8 9 9 10 11 15 16 16 16 16 16 16 16 16 16 17 17 16 16 15 15 14
1 1 1 1 -0 -0 0 1 2 4 7 7 7 8 10 11 12 13 13 14 15 16 17 17 16 16 16 16 16 17 17 16 16 16 15 14 14 13
1 1 1 1 1 1 1 1 3 6 9 11 11 12 13 15 16 17 17 17 17 17 17 17 17 17 17 17 17 17 17 16 15 15 14 13 12 12
0 1 1 2 3 4 4 5 6 8 11 12 13 14 16 18 19 20 19 18 17 17 17 17 17 17 17 17 17 17 17 16 15 14 13 12 11 11
0 1 3 5 6 8 9 9 10 11 12 13 14 15 17 19 21 21 20 19 18 18 18 18 18 17 17 17 17 17 17 15 14 12 11 10 10 10
3 4 7 8 10 11 12 12 13 13 14 14 15 16 18 20 21 21 21 21 20 20 20 20 19 18 18 17 17 17 16 15 13 11 9 9 8 8
7 8 10 12 13 13 14 14 15 15 15 15 16 17 19 20 21 21 21 21 21 21 21 21 21 20 19 18 17 17 16 14 12 10 9 7 7 7
11 11 12 13 14 14 15 16 17 17 17 17 18 19 20 20 21 21 22 21 21 21 22 22 22 21 21 20 18 17 16 14 12 10 8 6 5 5
13 13 14 14 15 16 16 17 18 19 19 20 20 20 21 21 22 22 23 22 22 22 23 23 22 22 21 20 18 17 15 13 11 9 7 6 4 4
15 15 15 16 16 17 18 19 20 21 21 22 22 22 22 22 23 24 24 24 23 23 23 23 22 21 20 19 17 15 14 12 11 9 7 5 3 3
16 16 17 17 18 19 20 21 22 23 24 24 24 24 24 24 24 25 25 25 25 24 24 23 22 21 19 18 16 14 13 12 11 9 6 4 2 2
17 17 18 19 20 21 22 22 23 25 25 26 26 26 26 26 26 26 26 26 26 25 24 23 21 20 19 17 16 14 13 12 11 8 6 3 1 1
19 19 20 21 22 23 24 25 25 26 27 27 27 27 28 28 28 27 27 26 26 25 23 22 21 19 18 17 16 14 12 11 10 8 6 3 1 1
21 22 23 24 25 26 26 27 27 27 28 28 28 28 29 29 28 27 27 26 25 24 22 21 20 19 18 16 15 13 11 10 9 7 5 3 2 1
23 24 25 26 27 27 28 28 28 28 28 29 29 29 29 29 28 27 26 25 24 23 22 21 20 18 17 16 15 13 11 10 8 6 4 2 2 1